Showing default

CONNECTA T3.1, 58256

Orbit data source: Space-Track

CONNECTA T3.1, 58256 is a payload satellite owned by Plan-S (TR) in SSO that was launched on Sat, 11 Nov 2023 UTC via an FALCON 9 launch vehicle from the Air Force Western Test Range (AFWTR). Payload-class satellites include a variety of spacecraft equipped with specific instruments for various scientific and technological missions. These include communications satellites like Starlink; space stations such as the ISS; scientific satellites like the Hubble; Earth observation satellites from companies like Planet Labs, Umbra, and HawkEye 360; GPS; miniature CubeSats for education and research; and military/defense satellites.

Not visible in the next 10 days
Identifier
58256, 2023-174A
Orbit
SSO
Country
Flag of UnknownUnknown / TURK
Related business
Manufacturer
Plan-S
Mission
Operational Commercial Communications
Bus & Motor
CUBESAT 3U, Unknown motor
Mass
5 kg wet, 5 kg dry
Launch date (UTC)
2023-11-11 (2 years ago)
Launch vehicle
FALCON 9
Launch site
Air Force Western Test Range (AFWTR)
Object type
Payload
Rocket body
Debris
Shape & HBR
Box + 2 Pan, 1.7 m
Radar Cross Section
0.080 m², Small (<0.1 m²)

Expand to show TLE details & history
Last TLE update: 11 hours ago

TLE from 11 hours ago
0 CONNECTA T3.1
1 58256U 23174A   25288.70611974  .00263360  00000-0  17060-2 0  9999
2 58256  97.3900  15.6980 0005130 285.5617  74.5081 15.75268564108393
Epoch: 2025-10-15T16:56Z
TLE epoch observation values (Epoch: 2025-10-15T16:56:48.745Z)
Latitude
-0.00007°
Longitude
97.01856°
Altitude
346.113 km
Speed
7.702 km/s
True Right ascension
01h 02m 47s
True Declination
0° 00' 00"
Sunlit
Object was in full shadow at epoch
Visualization orbit readout
Latitude
Unknown
Longitude
Unknown
Altitude
Unknown
Speed
Unknown
Apparent Right ascension
Unknown
Apparent Declination
Unknown
Sunlit
N/A
Visualization observer readout
Local Sidereal Time
22:06:50
Azimuth
Unknown
Elevation
Unknown
Doppler factor
Unknown
Orbital elements
Apogee altitude
344.206 km
Perigee altitude
337.312 km
Semi-major axis
6,718.896 km
Eccentricity
0.00051
Inclination
97.39°
RAAN
15.698°
Arg. of periapsis
285.5617°
True anomaly
74.56476°
Mean anomaly
74.5081°
Eccentric anomaly
74.53643°
Mean motion
3.94091 °/min
Orbital period
91.35 mins
BSTAR
0.001706
Loading maneuver chart data...
Computing Atmospheric mass density...

Documentation

Showing up to 5 results
|